Johnstown, PA

5:07 PM EDT on September 28, 2016 (GMT -0400)
Johnstown-Cambria County

Weather History for KJST - February, 2013

Change the Weather History Date:

Monday, February 11, 2013

  Actual Average Record
Temperature  
Mean Temperature 42 °F 26 °F  
Max Temperature 54 °F 33 °F 77 °F (1932)
Min Temperature 30 °F 19 °F -14 °F (1899)
Degree Days  
Heating Degree Days 23 39  
Month to date heating degree days 434  
Since 1 July heating degree days 4251  
Cooling Degree Days 0 0  
Month to date cooling degree days 0  
Year to date cooling degree days 0  
Moisture  
Dew Point 30 °F    
Average Humidity 79    
Maximum Humidity 97    
Minimum Humidity 32    
Precipitation  
Precipitation 0.09 in 0.08 in 2.14 in (1983)
Month to date precipitation 0.93  
Year to date precipitation 3.81  
Sea Level Pressure  
Sea Level Pressure 29.86 in    
Wind  
Wind Speed 14 mph (SSW)    
Max Wind Speed 29 mph    
Max Gust Speed 44 mph    
Visibility 7 miles    
Events Rain , Snow    
T = Trace of Precipitation, MM = Missing Value Source: NWS Daily Summary

Daily Weather History Graph

Daily Weather History Graph

Search for Another Location

Airport or City:

Trip Planner

Search our weather history database for the weather conditions in past years. The results will help you decide how hot, cold, wet, or windy it might be!

Date:

Astronomy

Feb. 11, 2013 Rise Set
Actual Time 7:13 AM EST 5:46 PM EST
Civil Twilight 6:45 AM EST 6:14 PM EST
Nautical Twilight 6:13 AM EST 6:46 PM EST
Astronomical Twilight 5:41 AM EST 7:18 PM EST
Moon 7:36 AM EST (2/11) 7:41 PM EST (2/11)
Length of Visible Light 11h 29m
Length of Day
10h 32m
Waxing Crescent, 3% of the Moon is Illuminated
Feb 11
Waxing Crescent
Feb 17
First Quarter
Feb 25
Full
Mar 4
Last Quarter
Mar 11
New

Hourly Weather History & Observations

Time (EST) Temp. Windchill Dew Point Humidity Pressure Visibility Wind Dir Wind Speed Gust Speed Precip Events Conditions
12:54 AM 33.1 °F 22.6 °F 21.0 °F 61% 30.03 in 10.0 mi SE 16.1 mph 29.9 mph 0.00 in Rain Light Rain
1:17 AM 32.0 °F 22.1 °F 24.8 °F 75% 29.96 in 9.0 mi SSE 13.8 mph 21.9 mph 0.00 in   Overcast
1:45 AM 30.2 °F 18.9 °F 26.6 °F 86% 29.96 in 3.0 mi SSE 16.1 mph 23.0 mph 0.01 in Rain Light Freezing Rain
1:54 AM 30.9 °F 21.2 °F 27.0 °F 85% 30.01 in 3.0 mi SSE 12.7 mph - 0.02 in Rain Light Freezing Rain
1:58 AM 30.2 °F 21.3 °F 28.4 °F 93% 29.95 in 2.5 mi SSE 10.4 mph 18.4 mph 0.01 in Rain Light Freezing Rain
2:01 AM 30.2 °F 20.2 °F 28.4 °F 93% 29.95 in 2.0 mi SSE 12.7 mph 19.6 mph 0.01 in Rain Light Freezing Rain
2:08 AM 30.2 °F 19.8 °F 28.4 °F 93% 29.94 in 2.0 mi SSE 13.8 mph 19.6 mph 0.01 in Snow Light Snow
2:11 AM 30.2 °F 20.8 °F 28.4 °F 93% 29.94 in 1.8 mi SSE 11.5 mph - 0.01 in Snow Light Snow
2:25 AM 30.2 °F 23.4 °F 28.4 °F 93% 29.94 in 2.5 mi SSE 6.9 mph 17.3 mph 0.02 in   Overcast
2:52 AM 32.0 °F 21.2 °F 30.2 °F 93% 29.92 in 4.0 mi South 16.1 mph - 0.03 in   Overcast
2:54 AM 32.0 °F 21.6 °F 30.0 °F 92% 29.97 in 3.0 mi South 15.0 mph 18.4 mph 0.03 in   Overcast
3:05 AM 32.0 °F 21.6 °F 30.2 °F 93% 29.91 in 2.0 mi South 15.0 mph - 0.00 in Snow Light Snow
3:25 AM 32.0 °F 22.1 °F 30.2 °F 93% 29.90 in 3.0 mi South 13.8 mph - 0.00 in Snow Light Snow
3:41 AM 32.0 °F 22.1 °F 30.2 °F 93% 29.89 in 1.8 mi SSE 13.8 mph - 0.01 in Snow Light Snow
3:54 AM 32.0 °F 22.5 °F 30.9 °F 96% 29.95 in 2.5 mi South 12.7 mph - 0.01 in Snow Light Snow
4:09 AM 32.0 °F 22.1 °F 30.2 °F 93% 29.88 in 3.0 mi South 13.8 mph - 0.01 in   Overcast
4:19 AM 32.0 °F 22.1 °F 30.2 °F 93% 29.87 in 2.5 mi South 13.8 mph - 0.01 in Snow Light Snow
4:38 AM 33.8 °F 24.8 °F 30.2 °F 87% 29.86 in 5.0 mi South 12.7 mph - 0.01 in   Overcast
4:54 AM 33.1 °F 26.1 °F 32.0 °F 96% 29.93 in 3.0 mi South 8.1 mph - 0.01 in Rain Light Rain
5:10 AM 33.8 °F 25.8 °F 32.0 °F 93% 29.86 in 2.0 mi South 10.4 mph - 0.01 in Snow Light Snow
5:26 AM 33.8 °F 27.7 °F 32.0 °F 93% 29.85 in 4.0 mi South 6.9 mph - 0.02 in Rain Light Rain
5:41 AM 33.8 °F 26.4 °F 32.0 °F 93% 29.85 in 9.0 mi South 9.2 mph - 0.02 in   Overcast
5:54 AM 34.0 °F 26.6 °F 33.1 °F 96% 29.91 in 10.0 mi South 9.2 mph - 0.02 in   Overcast
6:25 AM 35.6 °F 28.6 °F 33.8 °F 93% 29.84 in 10.0 mi South 9.2 mph - N/A   Overcast
6:54 AM 35.1 °F 29.3 °F 34.0 °F 96% 29.90 in 9.0 mi South 6.9 mph - N/A   Overcast
7:54 AM 36.0 °F 30.3 °F 35.1 °F 97% 29.89 in 9.0 mi South 6.9 mph - 0.00 in Rain Light Rain
8:03 AM 37.4 °F 32.1 °F 35.6 °F 93% 29.83 in 9.0 mi South 6.9 mph - 0.00 in Rain Light Rain
8:54 AM 42.1 °F 35.7 °F 39.0 °F 89% 29.85 in 10.0 mi SSW 11.5 mph - 0.00 in   Mostly Cloudy
9:51 AM 44.6 °F 37.4 °F 41.0 °F 87% 29.79 in 10.0 mi SSW 16.1 mph 24.2 mph N/A   Overcast
9:54 AM 46.0 °F 39.3 °F 41.0 °F 83% 29.83 in 10.0 mi SSW 16.1 mph 24.2 mph N/A   Overcast
10:12 AM 46.4 °F 40.7 °F 42.8 °F 87% 29.78 in 10.0 mi SSW 12.7 mph - N/A   Mostly Cloudy
10:54 AM 48.9 °F - 42.1 °F 77% 29.78 in 10.0 mi SSW 15.0 mph 24.2 mph N/A   Scattered Clouds
11:54 AM 50.0 °F - 39.9 °F 68% 29.75 in 10.0 mi SW 18.4 mph 27.6 mph N/A   Clear
12:54 PM 52.0 °F - 37.0 °F 57% 29.72 in 10.0 mi SW 18.4 mph 31.1 mph N/A   Scattered Clouds
1:54 PM 54.0 °F - 30.0 °F 40% 29.68 in 10.0 mi SW 27.6 mph 32.2 mph N/A   Mostly Cloudy
2:54 PM 54.0 °F - 26.1 °F 34% 29.66 in 10.0 mi WSW 26.5 mph 39.1 mph N/A   Partly Cloudy
3:54 PM 53.1 °F - 24.1 °F 32% 29.67 in 10.0 mi WSW 28.8 mph 43.7 mph N/A   Clear
4:54 PM 52.0 °F - 26.1 °F 37% 29.67 in 10.0 mi WSW 15.0 mph 24.2 mph N/A   Partly Cloudy
5:54 PM 48.9 °F - 23.0 °F 36% 29.69 in 10.0 mi West 23.0 mph 32.2 mph N/A   Clear
6:54 PM 42.1 °F 34.9 °F 30.0 °F 62% 29.78 in 10.0 mi WNW 13.8 mph 19.6 mph N/A   Overcast
7:54 PM 37.0 °F 26.2 °F 26.1 °F 65% 29.84 in 10.0 mi NW 21.9 mph 31.1 mph N/A   Overcast
8:54 PM 35.1 °F 25.5 °F 24.1 °F 64% 29.85 in 10.0 mi West 15.0 mph 20.7 mph N/A   Overcast
9:54 PM 34.0 °F 23.4 °F 24.1 °F 67% 29.85 in 10.0 mi West 17.3 mph 24.2 mph N/A   Overcast
10:54 PM 34.0 °F 23.8 °F 24.1 °F 67% 29.85 in 10.0 mi West 16.1 mph 31.1 mph N/A   Overcast
11:24 PM 33.8 °F 23.2 °F 24.8 °F 70% 29.81 in 10.0 mi West 17.3 mph 33.4 mph N/A   Overcast
11:50 PM 33.8 °F 22.5 °F 23.0 °F 65% 29.83 in 10.0 mi West 19.6 mph 27.6 mph 0.00 in   Overcast
11:54 PM 33.1 °F 20.6 °F 23.0 °F 66% 29.86 in 10.0 mi West 23.0 mph 34.5 mph 0.00 in   Overcast